Flag for Turkey Weather past 2 weeks in Antalya, Turkey

52 °F

Scattered clouds.

Feels Like: 50 °F
Forecast: 47 / 64 °F
Wind: 6 mph from Northwest

Location: Antalya Airport

Current Time: Nov 29, 2015 at 8:20:37 AM

Latest Report: Nov 29, 2015 at 7:50 AM

Visibility: N/A

Pressure: 30.01 "Hg

Humidity: 82%

Dew point: 46 °F

Location of AntalyaLocation

Historic Weather in Antalya — Graph


Antalya temperature yesterday

Maximum temperature yesterday: 68 °F (at 12:50 PM)
Minimum temperature yesterday: 54 °F (at 1:50 AM)
Average temperature yesterday: 59 °F

Past Weeks' High & Low Weather Summary

High77 °F (Nov 14, 11:50 AM)94% (Nov 21, 11:20 PM)30.21 "Hg (Nov 21, 11:20 PM)
Low46 °F (Nov 20, 6:20 AM)17% (Nov 18, 12:20 PM)29.77 "Hg (Nov 16, 12:50 PM)
Average60 °F66%30.02 "Hg
* Reported Nov 14 6:50 AM — Nov 29 6:50 AM, Antalya, Weather by CustomWeather, © 2015

Note: Actual official high and low records may vary slightly from our data, if they occured in-between our weather recording intervals... More about our weather records


Antalya weather history for previous 24 hours

Time TempWeatherWind HumidityBarometerVisibility
6:50 AM
Sun, Nov 29
50 °FScattered clouds.5 mph88%30.01 "HgN/A
6:20 AM50 °FPassing clouds.5 mph88%30.01 "HgN/A
5:50 AM50 °FPassing clouds.6 mph88%30.01 "HgN/A
5:20 AM50 °FPassing clouds.6 mph88%29.98 "HgN/A
4:50 AM50 °FPassing clouds.3 mph94%29.98 "HgN/A
4:20 AM50 °FPassing clouds.3 mph88%29.98 "HgN/A
3:50 AM52 °FPassing clouds.3 mph88%29.98 "HgN/A
3:20 AM52 °FPassing clouds.2 mph88%29.98 "HgN/A
2:50 AM54 °FPassing clouds.6 mph82%29.98 "HgN/A
2:20 AM54 °FPassing clouds.7 mph88%29.98 "HgN/A
1:50 AM55 °FPassing clouds.9 mph82%29.98 "HgN/A
1:20 AM55 °FPassing clouds.3 mph88%29.95 "HgN/A
12:50 AM55 °FPassing clouds.2 mph82%29.95 "HgN/A
11:50 PM
Sat, Nov 28
54 °FPassing clouds.5 mph94%29.95 "HgN/A
11:20 PM55 °FPassing clouds.3 mph88%29.95 "HgN/A
10:50 PM55 °FPassing clouds.6 mph88%29.95 "HgN/A
10:20 PM55 °FPassing clouds.8 mph88%29.95 "HgN/A
9:50 PM55 °FPassing clouds.9 mph94%29.92 "HgN/A
9:20 PM55 °FPassing clouds.7 mph94%29.95 "HgN/A
8:50 PM57 °FPassing clouds.9 mph88%29.95 "HgN/A
8:20 PM55 °FPassing clouds.10 mph88%29.92 "HgN/A
7:50 PM55 °FPassing clouds.9 mph94%29.92 "HgN/A
7:20 PM55 °FPassing clouds.6 mph94%29.92 "HgN/A
6:50 PM57 °FPassing clouds.8 mph88%29.92 "HgN/A
6:20 PM57 °FPassing clouds.6 mph88%29.92 "HgN/A
5:50 PM63 °FPassing clouds.9 mph73%29.89 "HgN/A
5:20 PM63 °FSprinkles. Passing clouds.10 mph73%29.89 "HgN/A
4:50 PM63 °FPassing clouds.16 mph73%29.89 "HgN/A
4:20 PM61 °FSprinkles. Partly sunny.10 mph83%29.92 "HgN/A
3:50 PM61 °FRain showers. Partly sunny.18 mph77%29.92 "Hg2 mi
3:20 PM66 °FSprinkles. Partly sunny.17 mph60%29.89 "HgN/A
2:50 PM66 °FSprinkles. Partly sunny.16 mph64%29.89 "Hg5 mi
2:20 PM68 °FPartly sunny.16 mph60%29.92 "HgN/A
1:50 PM68 °FPartly sunny.14 mph60%29.92 "HgN/A
1:20 PM68 °FPartly sunny.17 mph64%29.92 "HgN/A
12:50 PM68 °FPartly sunny.21 mph60%29.95 "HgN/A
12:20 PM66 °FPartly sunny.13 mph73%29.98 "HgN/A
11:50 AM63 °FSprinkles. Partly sunny.17 mph83%29.98 "Hg6 mi
11:20 AM64 °FSprinkles. Partly sunny.8 mph78%29.98 "HgN/A
10:50 AM64 °FSprinkles. Partly sunny.14 mph78%30.01 "HgN/A
10:20 AM63 °FSprinkles. Partly sunny.14 mph77%30.01 "HgN/A
9:50 AM63 °FSprinkles. Partly sunny.16 mph77%30.04 "Hg5 mi
9:20 AM66 °FPartly sunny.13 mph68%30.01 "HgN/A
8:50 AM64 °FSprinkles. Partly sunny.12 mph68%30.04 "HgN/A
8:20 AM63 °FSprinkles. Partly sunny.8 mph77%30.04 "HgN/A
Weather by CustomWeather, © 2015

See weather overviewHow to use our weather pages